GLO1378 SBGR-SBGL

Flight info

Callsign GLO1378
Flight time 0h 39m
Altitude 27000
Route UREMI UZ42 VUREP
Aircraft B38M/M-SDE1FGHILORVWXY/HB1

Departure

Time 2026-05-04 21:51
Airport São Paulo/Guarulhos–Governor André Franco Montoro International Airport (SBGR)

Arrival

Time 2026-05-04 22:31
Airport Rio Galeão – Tom Jobim International Airport (SBGL)
Time Latitude Longitude Altitude Speed Heading
2026-05-04 21:35 -23.42946 -46.48226 2447 ft 0 kts 324°
2026-05-04 21:43 -23.42948 -46.48225 2447 ft 2 kts 324°
2026-05-04 21:43 -23.42960 -46.48215 2447 ft 2 kts 324°
2026-05-04 21:44 -23.42972 -46.48206 2447 ft 2 kts 324°
2026-05-04 21:44 -23.42981 -46.48199 2447 ft 0 kts 324°
2026-05-04 21:44 -23.42991 -46.48189 2447 ft 2 kts 296°
2026-05-04 21:44 -23.42995 -46.48173 2447 ft 2 kts 269°
2026-05-04 21:45 -23.42992 -46.48157 2447 ft 2 kts 241°
2026-05-04 21:45 -23.42983 -46.48145 2447 ft 2 kts 213°
2026-05-04 21:45 -23.42969 -46.48139 2447 ft 2 kts 184°
2026-05-04 21:45 -23.42962 -46.48139 2447 ft 1 kts 171°
2026-05-04 21:46 -23.42958 -46.48140 2447 ft 0 kts 174°
2026-05-04 21:47 -23.42963 -46.48139 2447 ft 4 kts 174°
2026-05-04 21:47 -23.42995 -46.48136 2447 ft 4 kts 175°
2026-05-04 21:48 -23.43021 -46.48134 2447 ft 3 kts 175°
2026-05-04 21:48 -23.43069 -46.48130 2447 ft 10 kts 175°
2026-05-04 21:48 -23.43124 -46.48161 2447 ft 9 kts 251°
2026-05-04 21:48 -23.43142 -46.48225 2447 ft 8 kts 252°
2026-05-04 21:49 -23.43165 -46.48306 2447 ft 13 kts 253°
2026-05-04 21:49 -23.43208 -46.48386 2447 ft 11 kts 198°
2026-05-04 21:49 -23.43281 -46.48373 2446 ft 10 kts 163°
2026-05-04 21:49 -23.43345 -46.48354 2447 ft 8 kts 164°
2026-05-04 21:50 -23.43405 -46.48328 2447 ft 9 kts 145°
2026-05-04 21:50 -23.43412 -46.48271 2447 ft 7 kts 72°
2026-05-04 21:50 -23.43368 -46.48105 2447 ft 54 kts 73°
2026-05-04 21:50 -23.43194 -46.47460 2447 ft 119 kts 73°
2026-05-04 21:51 -23.42904 -46.46405 2449 ft 171 kts 74°
2026-05-04 21:51 -23.42543 -46.45030 2557 ft 203 kts 77°
2026-05-04 21:51 -23.42174 -46.43424 2908 ft 232 kts 78°
2026-05-04 21:51 -23.41790 -46.41692 3603 ft 242 kts 75°
2026-05-04 21:52 -23.41215 -46.39915 4119 ft 254 kts 69°
2026-05-04 21:52 -23.40559 -46.38076 4565 ft 268 kts 69°
2026-05-04 21:52 -23.39947 -46.36133 5219 ft 275 kts 75°
2026-05-04 21:52 -23.39895 -46.34021 5804 ft 285 kts 103°
2026-05-04 21:53 -23.40580 -46.32003 6545 ft 287 kts 109°
2026-05-04 21:53 -23.41170 -46.29916 7239 ft 289 kts 102°
2026-05-04 21:53 -23.41624 -46.27761 7923 ft 293 kts 102°
2026-05-04 21:53 -23.42067 -46.25606 8555 ft 297 kts 102°
2026-05-04 21:54 -23.42537 -46.23428 9250 ft 298 kts 103°
2026-05-04 21:54 -23.43026 -46.21232 9908 ft 301 kts 104°
2026-05-04 21:54 -23.43524 -46.19008 10463 ft 307 kts 104°
2026-05-04 21:54 -23.44047 -46.16668 10672 ft 326 kts 104°
2026-05-04 21:55 -23.44592 -46.14213 10918 ft 342 kts 104°
2026-05-04 21:55 -23.45155 -46.11671 11337 ft 350 kts 104°
2026-05-04 21:55 -23.45725 -46.09096 11852 ft 355 kts 104°
2026-05-04 21:55 -23.46317 -46.06426 12355 ft 360 kts 104°
2026-05-04 21:56 -23.46899 -46.03793 12875 ft 363 kts 104°
2026-05-04 21:56 -23.47498 -46.01083 13459 ft 364 kts 104°
2026-05-04 21:56 -23.48089 -45.98403 13970 ft 367 kts 104°
2026-05-04 21:56 -23.48691 -45.95676 14529 ft 369 kts 104°
2026-05-04 21:57 -23.49282 -45.92948 14975 ft 374 kts 102°
2026-05-04 21:57 -23.49433 -45.90131 15408 ft 379 kts 83°
2026-05-04 21:57 -23.48798 -45.87365 15941 ft 380 kts 69°
2026-05-04 21:57 -23.47772 -45.84683 16430 ft 382 kts 65°
2026-05-04 21:58 -23.46729 -45.81989 16780 ft 389 kts 68°
2026-05-04 21:58 -23.45820 -45.79207 17231 ft 392 kts 72°
2026-05-04 21:58 -23.45031 -45.76318 17630 ft 396 kts 75°
2026-05-04 21:58 -23.44319 -45.73426 18089 ft 398 kts 75°
2026-05-04 21:59 -23.43627 -45.70533 18560 ft 399 kts 76°
2026-05-04 21:59 -23.42918 -45.67580 18957 ft 403 kts 75°
2026-05-04 21:59 -23.42192 -45.64607 19354 ft 406 kts 75°
2026-05-04 21:59 -23.41458 -45.61645 19815 ft 408 kts 75°
2026-05-04 22:00 -23.40708 -45.58638 20165 ft 412 kts 75°
2026-05-04 22:00 -23.39964 -45.55640 20602 ft 414 kts 75°
2026-05-04 22:00 -23.39214 -45.52598 20953 ft 418 kts 75°
2026-05-04 22:00 -23.38472 -45.49516 21336 ft 421 kts 76°
2026-05-04 22:01 -23.37790 -45.46453 21775 ft 421 kts 77°
2026-05-04 22:01 -23.37135 -45.43326 22107 ft 425 kts 78°
2026-05-04 22:01 -23.36496 -45.40210 22497 ft 427 kts 78°
2026-05-04 22:01 -23.35851 -45.37069 22817 ft 430 kts 78°
2026-05-04 22:02 -23.35187 -45.33861 23218 ft 431 kts 78°
2026-05-04 22:02 -23.34519 -45.30665 23509 ft 435 kts 77°
2026-05-04 22:02 -23.33842 -45.27459 23833 ft 437 kts 77°
2026-05-04 22:02 -23.33143 -45.24210 24190 ft 439 kts 77°
2026-05-04 22:03 -23.32432 -45.20981 24662 ft 437 kts 77°
2026-05-04 22:03 -23.31721 -45.17784 25107 ft 437 kts 77°
2026-05-04 22:03 -23.31021 -45.14583 25505 ft 437 kts 77°
2026-05-04 22:03 -23.30334 -45.11379 25925 ft 436 kts 77°
2026-05-04 22:04 -23.29652 -45.08150 26296 ft 437 kts 78°
2026-05-04 22:04 -23.28968 -45.04912 26696 ft 437 kts 77°
2026-05-04 22:04 -23.28282 -45.01709 27056 ft 437 kts 77°
2026-05-04 22:04 -23.27590 -44.98525 27221 ft 440 kts 77°
2026-05-04 22:05 -23.26869 -44.95241 27231 ft 445 kts 77°
2026-05-04 22:05 -23.26162 -44.92025 27223 ft 442 kts 77°
2026-05-04 22:05 -23.25446 -44.88772 27212 ft 439 kts 77°
2026-05-04 22:05 -23.24739 -44.85580 27207 ft 436 kts 77°
2026-05-04 22:06 -23.24021 -44.82362 27202 ft 435 kts 77°
2026-05-04 22:06 -23.23306 -44.79134 27190 ft 431 kts 77°
2026-05-04 22:06 -23.22631 -44.76031 27161 ft 420 kts 78°
2026-05-04 22:06 -23.21979 -44.72960 26820 ft 417 kts 78°
2026-05-04 22:07 -23.21333 -44.69891 26310 ft 418 kts 78°
2026-05-04 22:07 -23.20679 -44.66802 25813 ft 418 kts 77°
2026-05-04 22:07 -23.20022 -44.63752 25326 ft 418 kts 77°
2026-05-04 22:07 -23.19350 -44.60699 24833 ft 418 kts 77°
2026-05-04 22:08 -23.18661 -44.57623 24338 ft 417 kts 77°
2026-05-04 22:08 -23.17962 -44.54588 23841 ft 416 kts 74°
2026-05-04 22:08 -23.17010 -44.51640 23345 ft 415 kts 66°
2026-05-04 22:08 -23.15761 -44.48802 22857 ft 413 kts 62°
2026-05-04 22:09 -23.14411 -44.46065 22373 ft 412 kts 61°
2026-05-04 22:09 -23.13061 -44.43328 21888 ft 411 kts 62°
2026-05-04 22:09 -23.11764 -44.40606 21406 ft 409 kts 63°
2026-05-04 22:09 -23.10495 -44.37834 20919 ft 408 kts 63°
2026-05-04 22:10 -23.09270 -44.35094 20436 ft 407 kts 64°
2026-05-04 22:10 -23.08040 -44.32318 19957 ft 405 kts 63°
2026-05-04 22:10 -23.06827 -44.29570 19457 ft 403 kts 63°
2026-05-04 22:10 -23.05632 -44.26863 18989 ft 401 kts 63°
2026-05-04 22:11 -23.04418 -44.24117 18502 ft 399 kts 63°
2026-05-04 22:11 -23.03190 -44.21363 18023 ft 397 kts 63°
2026-05-04 22:11 -23.01964 -44.18626 17539 ft 395 kts 63°
2026-05-04 22:11 -23.01044 -44.16570 17172 ft 394 kts 63°
2026-05-04 22:12 -22.99898 -44.13909 16661 ft 388 kts 65°
2026-05-04 22:12 -22.98850 -44.11234 16205 ft 378 kts 67°
2026-05-04 22:12 -22.97869 -44.08590 15742 ft 369 kts 68°
2026-05-04 22:12 -22.96923 -44.06034 15319 ft 363 kts 67°
2026-05-04 22:13 -22.95978 -44.03536 14870 ft 362 kts 67°
2026-05-04 22:13 -22.94990 -44.00972 14421 ft 361 kts 66°
2026-05-04 22:13 -22.94006 -43.98441 13972 ft 360 kts 66°
2026-05-04 22:13 -22.93021 -43.95912 13528 ft 358 kts 66°
2026-05-04 22:14 -22.92051 -43.93424 13086 ft 357 kts 67°
2026-05-04 22:14 -22.91098 -43.90976 12655 ft 355 kts 67°
2026-05-04 22:14 -22.90134 -43.88498 12215 ft 353 kts 67°
2026-05-04 22:14 -22.89192 -43.86081 11784 ft 351 kts 67°
2026-05-04 22:15 -22.88233 -43.83621 11343 ft 349 kts 67°
2026-05-04 22:15 -22.87266 -43.81142 10907 ft 347 kts 67°
2026-05-04 22:15 -22.86326 -43.78735 10474 ft 345 kts 67°
2026-05-04 22:15 -22.85393 -43.76348 10056 ft 343 kts 67°
2026-05-04 22:16 -22.84476 -43.74002 9732 ft 338 kts 67°
2026-05-04 22:16 -22.83563 -43.71666 9324 ft 335 kts 67°
2026-05-04 22:16 -22.82653 -43.69340 8915 ft 333 kts 67°
2026-05-04 22:16 -22.81747 -43.67025 8507 ft 331 kts 67°
2026-05-04 22:17 -22.80862 -43.64767 8108 ft 329 kts 67°
2026-05-04 22:17 -22.79971 -43.62490 7703 ft 327 kts 66°
2026-05-04 22:17 -22.79081 -43.60220 7254 ft 327 kts 66°
2026-05-04 22:17 -22.78189 -43.57946 6741 ft 328 kts 66°
2026-05-04 22:18 -22.77311 -43.55714 6416 ft 315 kts 66°
2026-05-04 22:18 -22.76492 -43.53621 6378 ft 290 kts 66°
2026-05-04 22:18 -22.75710 -43.51631 5959 ft 283 kts 66°
2026-05-04 22:18 -22.74979 -43.49652 5407 ft 286 kts 74°
2026-05-04 22:19 -22.74853 -43.47552 5311 ft 274 kts 96°
2026-05-04 22:19 -22.75010 -43.45575 4838 ft 276 kts 85°
2026-05-04 22:19 -22.74552 -43.43525 4137 ft 282 kts 70°
2026-05-04 22:19 -22.74021 -43.41516 3595 ft 278 kts 75°
2026-05-04 22:20 -22.73564 -43.39553 3298 ft 259 kts 77°
2026-05-04 22:20 -22.73568 -43.37698 3295 ft 228 kts 102°
2026-05-04 22:20 -22.74225 -43.36290 3182 ft 200 kts 129°
2026-05-04 22:20 -22.75152 -43.35287 3021 ft 176 kts 129°
2026-05-04 22:21 -22.75900 -43.34291 2737 ft 164 kts 123°
2026-05-04 22:21 -22.76572 -43.33329 2352 ft 163 kts 122°
2026-05-04 22:21 -22.77203 -43.32381 1941 ft 182 kts 120°
2026-05-04 22:21 -22.77885 -43.31329 1690 ft 202 kts 121°
2026-05-04 22:22 -22.78709 -43.30081 2267 ft 209 kts 122°
2026-05-04 22:22 -22.79197 -43.29225 2709 ft 207 kts 110°
2026-05-04 22:22 -22.79480 -43.27653 2964 ft 227 kts 78°
2026-05-04 22:22 -22.78785 -43.26103 2983 ft 236 kts 41°
2026-05-04 22:23 -22.77389 -43.25188 2989 ft 234 kts 21°
2026-05-04 22:23 -22.75841 -43.24621 2990 ft 234 kts 17°
2026-05-04 22:23 -22.74262 -43.24106 2993 ft 234 kts 17°
2026-05-04 22:23 -22.72685 -43.23592 2998 ft 237 kts 17°
2026-05-04 22:24 -22.71058 -43.23135 2991 ft 248 kts
2026-05-04 22:24 -22.69375 -43.23484 3013 ft 249 kts 330°
2026-05-04 22:24 -22.68080 -43.24726 3017 ft 253 kts 311°
2026-05-04 22:24 -22.67027 -43.26244 3013 ft 240 kts 307°
2026-05-04 22:25 -22.66117 -43.27665 3016 ft 220 kts 307°
2026-05-04 22:25 -22.65296 -43.29005 3017 ft 205 kts 298°
2026-05-04 22:25 -22.65070 -43.30539 3029 ft 214 kts 261°
2026-05-04 22:25 -22.65527 -43.32036 3029 ft 202 kts 248°
2026-05-04 22:26 -22.66097 -43.33378 2952 ft 190 kts 247°
2026-05-04 22:26 -22.66643 -43.34639 2795 ft 183 kts 247°
2026-05-04 22:26 -22.67216 -43.35856 2685 ft 180 kts 235°
2026-05-04 22:26 -22.68056 -43.36942 2742 ft 196 kts 227°
2026-05-04 22:27 -22.69060 -43.37915 2719 ft 192 kts 207°
2026-05-04 22:27 -22.70341 -43.38217 2460 ft 190 kts 173°
2026-05-04 22:27 -22.71634 -43.38030 2249 ft 186 kts 167°
2026-05-04 22:27 -22.72905 -43.37783 1994 ft 185 kts 166°
2026-05-04 22:28 -22.74163 -43.37533 1971 ft 183 kts 163°
2026-05-04 22:28 -22.75273 -43.36899 1957 ft 180 kts 122°
2026-05-04 22:28 -22.75655 -43.35695 1931 ft 160 kts 82°
2026-05-04 22:28 -22.75518 -43.34508 1830 ft 162 kts 86°
2026-05-04 22:29 -22.75925 -43.33415 1614 ft 161 kts 133°
2026-05-04 22:29 -22.76807 -43.32659 1432 ft 160 kts 131°
2026-05-04 22:29 -22.77536 -43.31778 1220 ft 155 kts 125°
2026-05-04 22:29 -22.78201 -43.30866 1018 ft 155 kts 124°
2026-05-04 22:30 -22.78851 -43.29936 819 ft 153 kts 123°
2026-05-04 22:30 -22.79478 -43.28999 625 ft 154 kts 123°
2026-05-04 22:30 -22.80109 -43.28053 425 ft 153 kts 124°
2026-05-04 22:30 -22.80747 -43.27132 229 ft 151 kts 125°
2026-05-04 22:31 -22.81347 -43.26230 37 ft 143 kts 124°
2026-05-04 22:31 -22.81858 -43.25447 23 ft 98 kts 125°
2026-05-04 22:31 -22.82135 -43.25027 22 ft 45 kts 124°
2026-05-04 22:31 -22.82288 -43.24792 28 ft 26 kts 125°
2026-05-04 22:32 -22.82350 -43.24629 29 ft 21 kts 99°
2026-05-04 22:32 -22.82371 -43.24492 32 ft 15 kts 96°
2026-05-04 22:32 -22.82325 -43.24457 31 ft 11 kts 309°
2026-05-04 22:32 -22.82279 -43.24530 30 ft 11 kts 304°
2026-05-04 22:33 -22.82230 -43.24605 29 ft 13 kts 305°
2026-05-04 22:33 -22.82177 -43.24686 28 ft 13 kts 305°
2026-05-04 22:33 -22.82108 -43.24716 29 ft 9 kts 17°
2026-05-04 22:33 -22.82049 -43.24677 32 ft 10 kts 36°
2026-05-04 22:34 -22.81981 -43.24626 35 ft 11 kts 34°
2026-05-04 22:34 -22.81914 -43.24607 35 ft 11 kts 356°
2026-05-04 22:34 -22.81838 -43.24566 35 ft 13 kts 39°
2026-05-04 22:34 -22.81766 -43.24558 38 ft 8 kts 332°
2026-05-04 22:35 -22.81732 -43.24608 38 ft 8 kts 305°
2026-05-04 22:35 -22.81690 -43.24672 37 ft 10 kts 305°
2026-05-04 22:35 -22.81649 -43.24737 38 ft 10 kts 304°
2026-05-04 22:35 -22.81603 -43.24809 39 ft 10 kts 304°
2026-05-04 22:36 -22.81552 -43.24861 40 ft 9 kts 342°
2026-05-04 22:36 -22.81517 -43.24833 41 ft 2 kts 56°
2026-05-04 22:36 -22.81510 -43.24819 41 ft 1 kts 61°
2026-05-04 22:36 -22.81509 -43.24817 41 ft 0 kts 62°